Regional Weather Roundup
Issued by NWS

Home | Current Version | Previous Version | Text Only | Print | Product List | Glossary Off
Versions: 1 2 3 4 5 6 7 8 9 10 11 12 13 14 15 16 17 18 19 20 21 22 23 24 25 26 27

000
ASUS45 KCYS 240310
RWRWY

WYOMING REGIONAL WEATHER ROUNDUP
NATIONAL WEATHER SERVICE CHEYENNE WY
800 PM MST THU FEB 23 2017

NOTE:  "FAIR" INDICATES FEW OR NO CLOUDS BELOW 12,000 FEET
WITH NO SIGNIFICANT WEATHER AND/OR OBSTRUCTIONS TO VISIBILITY.

WYZ001-240400-
YELLOWSTONE NATIONAL PARK

CITY           SKY/WX    TMP DP  RH WIND       PRES   REMARKS
LK YELLOWSTONE   N/A     13   5  70 CALM      29.74R
W YELLOWSTONE  NOT AVBL

$$
WYZ002>013-054>058-071-098>099-240400-
NORTHERN WYOMING

CITY           SKY/WX    TMP DP  RH WIND       PRES   REMARKS
JACKSON        CLOUDY    21  16  79 N12       29.72R WCI   9
CODY           LGT SNOW  21  17  84 NW7       29.90S FOG     WCI  12
GREYBULL       CLOUDY    28  21  75 NW16      29.86S WCI  16
WORLAND        LGT SNOW  25  24  96 NW3       29.89S VSB 3/4
SHERIDAN       LGT SNOW  26  21  81 SE13      29.95S WCI  15
BUFFALO        LGT SNOW  22  17  81 N6        29.92S WCI  14
GILLETTE       CLOUDY    24  20  84 NE9       29.92S WCI  14
HULETT         LGT SNOW  27  23  86 MISG      29.94S
NEWCASTLE      FAIR      25  23  93 CALM      29.91S

$$
WYZ014>020-022>026-101>103-240400-
CENTRAL WYOMING

CITY           SKY/WX    TMP DP  RH WIND       PRES   REMARKS
BIG PINEY      SNOW      19  17  92 SW10      29.74R WCI   7
PINEDALE       CLOUDY    19  16  86 SW10      29.74R WCI   8
DUBOIS         LGT SNOW  18  14  86 SE7       29.74S WCI   8
LANDER         LGT SNOW  20  19  96 SE5       29.83R VSB 1   WCI  13
RIVERTON       LGT SNOW  20  19  96 E8        29.84S VSB 1   WCI  10
CASPER         CLOUDY    18  15  88 E13       29.85R FOG     WCI   5
DOUGLAS        LGT SNOW  19  16  88 S6        29.89R FOG     WCI  11

$$
WYZ021-027>030-104>119-240400-
SOUTHERN WYOMING

CITY           SKY/WX    TMP DP  RH WIND       PRES   REMARKS
EVANSTON       CLOUDY    17  13  84 SW13      29.75R WCI   4
FORT BRIDGER   LGT SNOW  19  19 100 W8        29.79R WCI   9
ROCK SPRINGS   CLOUDY    19  12  74 NE18G29   29.72R WCI   4
DIXON            N/A     22  15  75 S16       29.72R WCI   8
RAWLINS        LGT SNOW  14   9  80 NE21      29.70R WCI  -4
SARATOGA       MOCLDY    16  10  79 S7        29.68S WCI   6
LARAMIE        CLOUDY    12   4  70 E6        29.73R WCI   3
CHEYENNE       LGT SNOW  15  11  83 N13       29.78R FOG     WCI   1
TORRINGTON     LGT SNOW  22  19  89 N12       29.88S VSB 1   WCI  10
PINE BLUFFS    CLOUDY    19  18  93 N17       29.82S WCI   4

$$




USA.gov is the U.S. government's official web portal to all federal, state and local government web resources and services.